AKST,Max TemperatureF,Mean TemperatureF,Min TemperatureF,Max Dew PointF,MeanDew PointF,Min DewpointF,Max Humidity, Mean Humidity, Min Humidity, Max Sea Level PressureIn, Mean Sea Level PressureIn, Min Sea Level PressureIn, Max VisibilityMiles, Mean VisibilityMiles, Min VisibilityMiles, Max Wind SpeedMPH, Mean Wind SpeedMPH, Max Gust SpeedMPH,PrecipitationIn, CloudCover, Events, WindDirDegrees
2011-11-1,44,42,39,39,38,34,100,85,81,30.20,29.87,29.59,10,6,3,18,3,26,0.00,8,,101
2011-11-2,41,38,35,36,33,25,100,84,65,29.67,29.52,29.44,10,8,0,16,5,24,0.00,4,,268
2011-11-3,37,32,26,27,21,18,93,68,45,30.08,29.97,29.75,10,10,10,13,6,18,0.00,1,,213
2011-11-4,35,32,28,32,26,12,93,79,47,29.99,29.69,29.46,10,5,2,9,3,24,0.00,7,,90
2011-11-5,39,36,33,37,34,32,100,94,87,29.81,29.61,29.45,10,9,4,6,3,,0.00,8,,251
2011-11-6,39,37,35,37,35,34,100,93,87,29.84,29.77,29.66,10,5,2,6,1,,0.00,8,,55
2011-11-7,39,36,33,36,34,32,100,91,81,29.87,29.77,29.70,10,9,3,8,2,,0.00,7,,209
2011-11-8,41,36,30,36,33,28,100,85,65,30.05,30.03,29.98,10,9,0,8,2,,0.00,7,,163
2011-11-9,39,37,33,36,34,30,100,90,81,29.96,29.82,29.73,10,10,10,6,2,,0.00,6,,219
2011-11-10,35,32,30,34,31,28,100,93,81,29.82,29.65,29.37,10,4,0,6,3,,0.00,8,,247
2011-11-11,39,36,32,36,34,30,100,92,87,29.65,29.53,29.34,10,10,7,8,4,,0.00,6,,225
2011-11-12,42,37,32,37,33,30,100,86,70,29.36,29.02,28.87,10,6,2,15,4,30,0.00,8,,223
2011-11-13,41,37,33,34,29,23,93,75,60,29.52,29.36,29.19,10,10,5,13,8,20,0.00,7,,224
2011-11-14,33,30,28,30,27,25,100,86,70,29.83,29.72,29.59,10,8,1,9,2,,0.00,6,,232
2011-11-15,35,32,30,34,31,30,100,90,81,29.94,29.87,29.78,10,8,1,9,1,,0.00,7,,192
2011-11-16,37,35,33,34,32,30,100,83,75,29.75,29.31,29.05,10,8,3,13,7,23,0.00,8,,119
2011-11-17,33,30,28,30,29,25,100,88,75,29.75,29.52,29.25,10,10,6,9,4,16,0.00,5,,213
2011-11-18,28,24,21,23,20,16,93,83,64,29.95,29.91,29.86,10,10,10,7,4,,0.00,2,,234
2011-11-19,24,20,17,19,15,7,93,78,46,29.87,29.84,29.77,10,10,10,6,1,,0.00,6,,234
2011-11-20,24,22,19,21,14,10,93,74,63,29.73,29.50,29.16,10,8,1,8,3,,0.00,8,,263
2011-11-21,35,32,28,32,28,21,93,83,64,29.06,29.00,28.89,10,4,1,21,9,33,0.00,8,,178
2011-11-22,37,32,26,30,28,23,100,84,65,29.08,28.92,28.81,10,8,2,10,3,,0.00,6,,235
2011-11-23,33,30,28,28,27,25,100,89,75,29.11,29.07,29.01,10,4,0,12,4,18,0.00,7,,119
2011-11-24,33,28,24,28,26,21,100,89,64,29.32,29.13,29.04,10,8,0,12,4,21,0.00,6,,221
2011-11-25,35,26,17,30,25,12,100,86,65,29.82,29.70,29.52,10,8,0,10,3,20,0.00,6,,147
2011-11-26,33,32,32,32,30,28,93,88,81,29.46,29.38,29.30,10,5,1,12,4,20,0.00,7,,216
2011-11-27,33,28,23,30,27,21,100,92,80,29.93,29.73,29.49,10,8,0,7,4,,0.00,6,,246
2011-11-28,37,34,32,34,31,30,100,90,81,29.86,29.76,29.67,10,6,2,10,4,22,0.00,8,,150
2011-11-29,35,32,28,34,30,27,100,93,81,30.38,30.08,29.94,10,8,0,10,2,16,0.00,5,,225
2011-11-30,39,32,26,34,30,25,100,88,70,30.65,30.58,30.40,10,9,0,7,3,21,0.00,6,,225